W0SS-13 Weather Reports


time (UTC)temp
C
wind
direction
speed
KPH
gust
KPH
rain 1hr
cm
rain 24hr
cm
rain mn
cm
humidity
%
barometer
mb
20260507155546 15 205 17.7 20.9 0.00 0.00 0.00 58 1017.0
20260507155043 15 223 14.5 14.5 0.00 0.00 0.00 60 1017.0
20260507154540 15 254 12.9 14.5 0.00 0.00 0.00 61 1017.1
20260507154037 15 246 17.7 20.9 0.00 0.00 0.00 58 1017.2
20260507153534 15 274 19.3 22.5 0.00 0.00 0.00 59 1017.3
20260507153025 15 235 11.3 16.1 0.00 0.00 0.00 59 1017.4
20260507152520 15 236 20.9 25.7 0.00 0.00 0.00 59 1017.4
20260507152017 15 228 17.7 22.5 0.00 0.00 0.00 59 1017.5
20260507151513 15 208 9.7 12.9 0.00 0.00 0.00 62 1017.4
20260507151010 15 229 16.1 20.9 0.00 0.00 0.00 62 1017.4
20260507150507 14 248 16.1 16.1 0.00 0.00 0.00 62 1017.5
20260507150005 14 232 9.7 12.9 0.00 0.00 0.00 63 1017.5
20260507145459 15 219 17.7 22.5 0.00 0.00 0.00 61 1017.5
20260507144956 14 225 17.7 20.9 0.00 0.00 0.00 63 1017.7
20260507144453 13 253 6.4 9.7 0.00 0.00 0.00 66 1017.6
20260507143950 13 232 14.5 17.7 0.00 0.00 0.00 63 1017.4
20260507143448 13 235 17.7 17.7 0.00 0.00 0.00 64 1017.7
20260507142944 13 282 11.3 12.9 0.00 0.00 0.00 65 1017.3
20260507142440 13 246 17.7 22.5 0.00 0.00 0.00 63 1017.6
20260507141937 13 242 14.5 17.7 0.00 0.00 0.00 64 1017.4
20260507141433 13 222 4.8 4.8 0.00 0.00 0.00 66 1017.6
20260507140930 12 234 8.0 9.7 0.00 0.00 0.00 67 1017.6
20260507140427 13 248 14.5 20.9 0.00 0.00 0.00 66 1017.9
20260507135925 12 234 9.7 11.3 0.00 0.00 0.00 66 1018.0
20260507135421 12 227 12.9 14.5 0.00 0.00 0.00 66 1017.8
20260507134919 12 242 6.4 6.4 0.00 0.00 0.00 68 1017.7
20260507134415 12 210 9.7 11.3 0.00 0.00 0.00 68 1017.8
20260507133911 12 230 6.4 6.4 0.00 0.00 0.00 69 1017.9
20260507133406 12 235 8.0 11.3 0.00 0.00 0.00 69 1017.9
20260507132900 11 236 6.4 6.4 0.00 0.00 0.00 69 1017.6
20260507132356 11 257 9.7 11.3 0.00 0.00 0.00 70 1017.9
20260507131853 11 195 4.8 6.4 0.00 0.00 0.00 71 1018.0
20260507131349 11 231 8.0 9.7 0.00 0.00 0.00 72 1017.9
20260507130846 11 231 4.8 6.4 0.00 0.00 0.00 73 1017.9
20260507130343 10 202 9.7 12.9 0.00 0.00 0.00 73 1017.8
20260507125842 10 210 6.4 9.7 0.00 0.00 0.00 73 1017.9
20260507125339 10 216 4.8 4.8 0.00 0.00 0.00 75 1018.3
20260507124837 10 231 6.4 6.4 0.00 0.00 0.00 75 1018.0
20260507124333 9 229 4.8 4.8 0.00 0.00 0.00 75 1018.0
20260507123832 9 221 3.2 3.2 0.00 0.00 0.00 75 1018.1
20260507123328 8 223 4.8 4.8 0.00 0.00 0.00 76 1018.1
20260507122824 8 216 1.6 3.2 0.00 0.00 0.00 77 1017.8
20260507122320 7 214 4.8 4.8 0.00 0.00 0.00 78 1018.1
20260507121816 7 195 4.8 4.8 0.00 0.00 0.00 79 1018.0
20260507121312 7 176 4.8 4.8 0.00 0.00 0.00 79 1017.8
20260507120809 6 188 3.2 4.8 0.00 0.00 0.00 80 1018.0
20260507120305 6 199 4.8 6.4 0.00 0.00 0.00 81 1017.9
20260507115801 6 192 3.2 3.2 0.00 0.00 0.00 81 1018.2
20260507115257 6 188 3.2 3.2 0.00 0.00 0.00 80 1017.8
20260507114753 6 188 3.2 3.2 0.00 0.00 0.00 79 1017.7
20260507114250 6 187 4.8 4.8 0.00 0.00 0.00 79 1018.0
20260507113748 6 198 3.2 3.2 0.00 0.00 0.00 79 1018.0
20260507113244 6 194 3.2 3.2 0.00 0.00 0.00 78 1017.9
20260507112742 6 193 3.2 3.2 0.00 0.00 0.00 78 1017.9
20260507112239 6 197 3.2 3.2 0.00 0.00 0.00 78 1018.0
20260507111737 6 197 3.2 4.8 0.00 0.00 0.00 77 1018.0
20260507111233 6 208 1.6 1.6 0.00 0.00 0.00 77 1017.7
20260507110729 6 196 3.2 3.2 0.00 0.00 0.00 77 1017.7
20260507110226 6 197 3.2 3.2 0.00 0.00 0.00 76 1017.6
20260507105723 6 198 3.2 3.2 0.00 0.00 0.00 76 1017.8
20260507105219 6 202 1.6 1.6 0.00 0.00 0.00 76 1017.8
20260507104716 6 203 3.2 4.8 0.00 0.00 0.00 76 1017.6
20260507104213 6 199 3.2 3.2 0.00 0.00 0.00 75 1017.5
20260507103709 6 182 3.2 3.2 0.00 0.00 0.00 75 1017.6
20260507103205 6 187 3.2 3.2 0.00 0.00 0.00 74 1017.8
20260507102702 6 192 3.2 3.2 0.00 0.00 0.00 74 1017.9
20260507102158 6 194 4.8 4.8 0.00 0.00 0.00 74 1017.6
20260507101654 6 214 3.2 3.2 0.00 0.00 0.00 74 1017.9
20260507101150 6 185 3.2 3.2 0.00 0.00 0.00 74 1017.8
20260507100647 6 200 1.6 1.6 0.00 0.00 0.00 72 1017.8
20260507100146 7 199 3.2 3.2 0.00 0.00 0.00 71 1017.8
20260507095643 7 192 3.2 3.2 0.00 0.00 0.00 71 1017.7
20260507095140 7 194 3.2 3.2 0.00 0.00 0.00 71 1017.9
20260507094636 7 206 3.2 3.2 0.00 0.00 0.00 70 1017.9
20260507094133 7 139 3.2 3.2 0.00 0.00 0.00 70 1017.9
20260507093630 7 202 3.2 3.2 0.00 0.00 0.00 69 1018.0
20260507093129 7 201 1.6 3.2 0.00 0.00 0.00 68 1018.0
20260507092625 7 207 3.2 3.2 0.00 0.00 0.00 68 1018.1
20260507092122 7 204 3.2 3.2 0.00 0.00 0.00 67 1018.0
20260507091619 7 213 4.8 4.8 0.00 0.00 0.00 67 1017.9
20260507091114 7 205 4.8 4.8 0.00 0.00 0.00 67 1018.1
20260507090610 7 208 3.2 3.2 0.00 0.00 0.00 67 1018.1
20260507090108 7 207 3.2 3.2 0.00 0.00 0.00 66 1018.2
20260507085604 7 204 3.2 3.2 0.00 0.00 0.00 66 1018.1
20260507085101 7 213 3.2 3.2 0.00 0.00 0.00 66 1018.0
20260507084558 7 204 3.2 3.2 0.00 0.00 0.00 66 1018.3
20260507084055 7 205 3.2 3.2 0.00 0.00 0.00 66 1018.0
20260507083551 7 202 3.2 3.2 0.00 0.00 0.00 66 1018.2
20260507083048 7 211 1.6 3.2 0.00 0.00 0.00 66 1018.3
20260507082544 7 212 1.6 1.6 0.00 0.00 0.00 66 1018.3
20260507082041 7 213 3.2 3.2 0.00 0.00 0.00 66 1018.1
20260507081537 7 207 3.2 3.2 0.00 0.00 0.00 66 1018.2
20260507081034 7 204 3.2 3.2 0.00 0.00 0.00 66 1018.3
20260507080530 7 204 3.2 3.2 0.00 0.00 0.00 66 1018.1
20260507080027 7 214 4.8 4.8 0.00 0.00 0.00 66 1018.2
20260507075522 7 204 3.2 3.2 0.00 0.00 0.00 66 1018.0
20260507075019 7 203 3.2 3.2 0.00 0.00 0.00 66 1018.1
20260507074515 7 207 3.2 3.2 0.00 0.00 0.00 67 1018.0
20260507074014 7 204 1.6 3.2 0.00 0.00 0.00 67 1018.1
20260507073510 8 204 1.6 3.2 0.00 0.00 0.00 67 1018.2
20260507073006 8 203 3.2 3.2 0.00 0.00 0.00 66 1018.5
20260507072504 8 206 1.6 1.6 0.00 0.00 0.00 67 1018.5
20260507072001 8 206 1.6 3.2 0.00 0.00 0.00 67 1018.6
20260507071458 8 207 1.6 3.2 0.00 0.00 0.00 67 1018.2
20260507070954 8 206 3.2 3.2 0.00 0.00 0.00 67 1018.5
20260507070452 8 205 3.2 3.2 0.00 0.00 0.00 68 1018.7
20260507065949 8 206 3.2 3.2 0.00 0.00 0.00 68 1018.7
20260507065445 8 195 3.2 3.2 0.00 0.00 0.00 68 1018.7
20260507064942 8 196 3.2 3.2 0.00 0.00 0.00 68 1018.5
20260507064441 8 198 1.6 1.6 0.00 0.00 0.00 68 1018.7
20260507063938 8 196 1.6 1.6 0.00 0.00 0.00 67 1018.9
20260507063435 8 200 1.6 1.6 0.00 0.00 0.00 67 1018.9
20260507062932 8 196 1.6 1.6 0.00 0.00 0.00 67 1019.1
20260507062429 8 204 3.2 3.2 0.00 0.00 0.00 66 1019.0
20260507061926 8 205 1.6 3.2 0.00 0.00 0.00 65 1019.0
20260507061424 8 208 1.6 1.6 0.00 0.00 0.00 65 1019.0
20260507060923 8 211 3.2 3.2 0.00 0.00 0.00 65 1019.0
20260507060419 8 203 0.0 0.0 0.00 0.00 0.00 66 1019.0
20260507055916 8 203 0.0 0.0 0.00 0.00 0.00 67 1019.0
20260507055410 8 168 0.0 0.0 0.00 0.00 0.00 68 1018.8
20260507054902 8 190 1.6 1.6 0.00 0.00 0.00 66 1018.9
20260507054358 8 187 3.2 3.2 0.00 0.00 0.00 66 1018.8
20260507053856 8 195 0.0 1.6 0.00 0.00 0.00 68 1018.8
20260507053353 8 196 1.6 1.6 0.00 0.00 0.00 68 1019.0
20260507052852 8 192 0.0 1.6 0.00 0.00 0.00 67 1019.0
20260507052349 8 192 1.6 3.2 0.00 0.00 0.00 67 1019.0
20260507051846 8 187 0.0 1.6 0.00 0.00 0.00 66 1019.0
20260507051344 8 182 3.2 3.2 0.00 0.00 0.00 66 1019.0
20260507050840 8 198 1.6 1.6 0.00 0.00 0.00 66 1019.0
20260507050337 8 189 1.6 3.2 0.00 0.00 0.00 66 1019.0
20260507045833 8 183 3.2 3.2 0.00 0.03 0.03 66 1018.8
20260507045330 8 187 3.2 3.2 0.00 0.03 0.03 66 1018.8
20260507044827 7 196 1.6 1.6 0.00 0.03 0.03 68 1018.9
20260507044324 7 197 0.0 1.6 0.00 0.03 0.03 68 1019.1
20260507043819 8 196 0.0 1.6 0.00 0.03 0.03 67 1019.1
20260507043316 8 188 3.2 4.8 0.00 0.03 0.03 68 1019.2
20260507042812 8 185 1.6 1.6 0.00 0.03 0.03 68 1019.0
20260507042308 8 197 1.6 1.6 0.00 0.03 0.03 69 1018.9
20260507041805 8 197 0.0 0.0 0.00 0.03 0.03 67 1018.9
20260507041301 8 183 1.6 3.2 0.00 0.03 0.03 66 1018.9
20260507040753 8 178 3.2 3.2 0.00 0.03 0.03 66 1018.8
20260507040249 8 177 3.2 3.2 0.00 0.03 0.03 67 1019.0
20260507035746 8 180 3.2 3.2 0.00 0.03 0.03 69 1019.3
20260507035241 8 194 1.6 3.2 0.00 0.03 0.03 69 1019.3
20260507034739 8 179 1.6 3.2 0.00 0.03 0.03 68 1019.3
20260507034235 8 185 0.0 0.0 0.00 0.03 0.03 69 1019.3
20260507033734 8 185 0.0 1.6 0.00 0.03 0.03 69 1019.1
20260507033231 8 189 0.0 1.6 0.00 0.03 0.03 68 1019.5
20260507032728 8 180 0.0 0.0 0.00 0.03 0.03 66 1019.2
20260507032224 8 164 0.0 0.0 0.00 0.03 0.03 72 1019.2
20260507031721 9 162 0.0 0.0 0.00 0.03 0.03 70 1019.0
20260507031218 9 161 1.6 3.2 0.00 0.03 0.03 67 1019.1
20260507030715 9 169 1.6 1.6 0.00 0.03 0.03 66 1018.9
20260507030212 8 175 0.0 0.0 0.00 0.03 0.03 67 1019.1
20260507025709 8 197 0.0 0.0 0.00 0.03 0.03 67 1019.0
20260507025206 7 289 0.0 0.0 0.00 0.03 0.03 74 1019.1
20260507024704 7 289 0.0 0.0 0.00 0.03 0.03 76 1019.1
20260507024201 7 289 0.0 0.0 0.00 0.03 0.03 75 1019.0
20260507023656 7 289 0.0 0.0 0.00 0.03 0.03 73 1019.1
20260507023154 7 289 0.0 0.0 0.00 0.03 0.03 72 1018.9
20260507022651 7 289 0.0 0.0 0.00 0.03 0.03 70 1018.7
20260507022147 8 289 0.0 0.0 0.00 0.03 0.03 71 1018.9
20260507021643 7 289 0.0 0.0 0.00 0.03 0.03 61 1018.7
20260507021138 8 289 0.0 0.0 0.00 0.03 0.03 69 1018.7
20260507020637 8 289 0.0 0.0 0.00 0.03 0.03 68 1018.6
20260507020133 8 289 0.0 0.0 0.00 0.03 0.03 61 1018.5
20260507015632 8 289 0.0 0.0 0.00 0.03 0.03 63 1018.2
20260507015129 9 289 0.0 0.0 0.00 0.03 0.03 62 1018.5
20260507014625 10 289 0.0 0.0 0.00 0.03 0.03 55 1018.6
20260507014121 10 289 0.0 0.0 0.00 0.03 0.03 60 1018.6
20260507013618 10 289 0.0 0.0 0.00 0.03 0.03 63 1018.2
20260507013115 11 290 0.0 0.0 0.00 0.03 0.03 63 1018.6
20260507012612 11 290 0.0 0.0 0.00 0.03 0.03 63 1018.6
20260507012108 12 290 0.0 0.0 0.00 0.03 0.03 55 1018.6
20260507011606 12 290 0.0 0.0 0.00 0.03 0.03 49 1018.3
20260507011102 13 316 0.0 0.0 0.00 0.03 0.03 47 1018.1
20260507010557 13 307 1.6 1.6 0.00 0.03 0.03 43 1018.2
20260507010053 13 325 1.6 3.2 0.00 0.03 0.03 43 1018.1
20260507005551 13 332 3.2 3.2 0.00 0.03 0.03 43 1018.1
20260507005046 14 348 3.2 3.2 0.00 0.03 0.03 42 1018.2
20260507004544 14 347 1.6 3.2 0.00 0.03 0.03 42 1018.1
20260507004041 14 350 3.2 4.8 0.00 0.03 0.03 40 1018.0
20260507003537 14 324 6.4 6.4 0.00 0.03 0.03 40 1018.1
20260507003032 15 318 4.8 4.8 0.00 0.03 0.03 38 1018.1
20260507002529 15 306 4.8 4.8 0.00 0.03 0.03 40 1018.1
20260507002025 15 331 3.2 3.2 0.00 0.03 0.03 40 1018.1
20260507001521 15 335 6.4 6.4 0.00 0.03 0.03 39 1018.1
20260507001019 15 324 8.0 9.7 0.00 0.03 0.03 38 1017.9
20260507000515 15 337 9.7 12.9 0.00 0.03 0.03 39 1017.8
20260507000011 15 324 1.6 1.6 0.00 0.03 0.03 39 1018.3
20260506235508 15 270 6.4 6.4 0.00 0.03 0.03 37 1018.2
20260506235004 15 325 4.8 4.8 0.00 0.03 0.03 37 1018.0
20260506234502 15 325 4.8 4.8 0.00 0.03 0.03 36 1018.1
20260506233959 15 320 8.0 9.7 0.00 0.03 0.03 38 1018.2
20260506233455 15 339 6.4 6.4 0.00 0.03 0.03 39 1018.1
20260506232951 15 319 12.9 14.5 0.00 0.03 0.03 35 1018.3
20260506232447 15 314 9.7 11.3 0.00 0.03 0.03 38 1018.3
20260506231938 15 356 12.9 14.5 0.00 0.03 0.03 36 1018.1
20260506231436 15 342 11.3 14.5 0.00 0.03 0.03 38 1018.0
20260506230933 15 330 8.0 9.7 0.00 0.03 0.03 39 1018.1
20260506230429 15 5 9.7 11.3 0.00 0.03 0.03 38 1018.1
20260506225925 15 352 6.4 6.4 0.00 0.03 0.03 39 1018.1
20260506225423 15 332 6.4 6.4 0.00 0.03 0.03 38 1018.1
20260506224920 15 307 12.9 16.1 0.00 0.03 0.03 38 1017.9
20260506224417 15 304 9.7 12.9 0.00 0.03 0.03 37 1017.9
20260506223913 15 326 8.0 11.3 0.00 0.03 0.03 42 1018.1
20260506223409 15 350 3.2 3.2 0.00 0.03 0.03 38 1018.2
20260506222906 15 355 11.3 14.5 0.00 0.03 0.03 39 1018.0
20260506222403 15 34 17.7 22.5 0.00 0.03 0.03 37 1018.2
20260506221900 15 328 9.7 12.9 0.00 0.03 0.03 41 1018.1
20260506221357 15 325 9.7 11.3 0.00 0.03 0.03 36 1018.3
20260506220854 15 312 8.0 11.3 0.00 0.03 0.03 39 1018.2
20260506220350 15 4 6.4 9.7 0.00 0.03 0.03 44 1018.3
20260506215847 15 343 4.8 6.4 0.00 0.03 0.03 40 1018.3
20260506215342 15 14 11.3 12.9 0.00 0.03 0.03 36 1018.6
20260506214839 15 327 6.4 6.4 0.00 0.03 0.03 39 1018.2
20260506214335 15 304 4.8 4.8 0.00 0.03 0.03 40 1018.5
20260506213834 15 5 9.7 11.3 0.00 0.03 0.03 39 1018.6
20260506213331 15 26 9.7 11.3 0.00 0.03 0.03 39 1018.6
20260506212828 15 327 9.7 11.3 0.00 0.03 0.03 40 1018.6
20260506212324 15 75 9.7 12.9 0.00 0.03 0.03 36 1018.7
20260506211819 15 16 19.3 22.5 0.00 0.03 0.03 36 1018.9
20260506211315 15 14 8.0 11.3 0.00 0.03 0.03 39 1018.9
20260506210813 15 303 9.7 11.3 0.00 0.03 0.03 39 1018.8
20260506210309 15 356 17.7 20.9 0.00 0.03 0.03 40 1018.7
20260506205806 14 318 6.4 6.4 0.00 0.03 0.03 40 1019.0
20260506205305 15 328 9.7 11.3 0.00 0.03 0.03 39 1019.1
20260506204759 15 323 14.5 14.5 0.00 0.03 0.03 39 1019.2
20260506204257 14 285 4.8 4.8 0.00 0.03 0.03 44 1019.0
20260506203754 14 0 12.9 14.5 0.00 0.03 0.03 38 1019.4
20260506203251 15 349 11.3 16.1 0.00 0.03 0.03 43 1019.2
20260506202748 14 324 11.3 14.5 0.00 0.03 0.03 45 1019.2
20260506202245 14 312 11.3 14.5 0.00 0.03 0.03 43 1019.2
20260506201742 14 332 16.1 22.5 0.00 0.03 0.03 42 1019.4
20260506201238 14 34 11.3 12.9 0.00 0.03 0.03 40 1019.7
20260506200736 14 314 4.8 4.8 0.00 0.03 0.03 41 1019.5
20260506200232 14 333 14.5 14.5 0.00 0.03 0.03 42 1019.5
20260506195728 14 288 6.4 6.4 0.00 0.03 0.03 43 1019.5
20260506195225 14 325 17.7 20.9 0.00 0.03 0.03 42 1019.6
20260506194722 13 34 8.0 9.7 0.00 0.03 0.03 41 1019.6
20260506194219 13 10 4.8 4.8 0.00 0.03 0.03 38 1019.5
20260506193717 13 339 9.7 12.9 0.00 0.03 0.03 35 1019.7
20260506193213 13 329 16.1 20.9 0.00 0.03 0.03 38 1019.7
20260506192710 13 330 12.9 17.7 0.00 0.03 0.03 39 1019.7
20260506192206 14 307 12.9 12.9 0.00 0.03 0.03 40 1019.7
20260506191658 14 61 3.2 4.8 0.00 0.03 0.03 37 1019.6
20260506191153 13 336 3.2 4.8 0.00 0.03 0.03 46 1019.7
20260506190651 13 320 9.7 11.3 0.00 0.03 0.03 37 1020.0
20260506190147 13 357 6.4 6.4 0.00 0.03 0.03 43 1019.8
20260506185645 13 270 9.7 11.3 0.00 0.03 0.03 42 1019.8
20260506185140 13 348 11.3 14.5 0.00 0.03 0.03 44 1020.1
20260506184639 13 293 4.8 4.8 0.00 0.03 0.03 42 1020.2
20260506184136 13 7 1.6 3.2 0.00 0.03 0.03 39 1020.1
20260506183632 12 305 8.0 11.3 0.00 0.03 0.03 43 1020.1
20260506183128 13 5 6.4 9.7 0.00 0.03 0.03 39 1020.0
20260506182626 13 354 14.5 17.7 0.00 0.03 0.03 46 1020.3
20260506182122 13 23 8.0 11.3 0.00 0.03 0.03 43 1020.3
20260506181620 13 355 9.7 11.3 0.00 0.03 0.03 44 1020.0
20260506181117 13 317 8.0 12.9 0.00 0.03 0.03 46 1020.2
20260506180614 12 349 9.7 12.9 0.00 0.03 0.03 45 1020.2
20260506180110 12 350 9.7 11.3 0.00 0.03 0.03 42 1020.3
20260506175607 12 352 9.7 12.9 0.00 0.03 0.03 43 1020.3
20260506175103 12 345 12.9 14.5 0.00 0.03 0.03 41 1020.4
20260506174602 12 353 6.4 9.7 0.00 0.03 0.03 43 1020.4
20260506174058 12 342 9.7 11.3 0.00 0.03 0.03 45 1020.4
20260506173555 12 355 12.9 14.5 0.00 0.03 0.03 40 1020.1
20260506173052 12 317 12.9 14.5 0.00 0.03 0.03 42 1020.4
20260506172550 12 7 12.9 16.1 0.00 0.03 0.03 44 1020.4
20260506172046 12 334 6.4 12.9 0.00 0.03 0.03 46 1020.5
20260506171543 12 13 9.7 14.5 0.00 0.03 0.03 45 1020.4
20260506171040 13 292 9.7 16.1 0.00 0.03 0.03 39 1020.5
20260506170538 13 347 12.9 20.9 0.00 0.03 0.03 42 1020.5
20260506170030 13 331 12.9 16.1 0.00 0.03 0.03 41 1020.5
20260506165528 13 26 12.9 22.5 0.00 0.03 0.03 42 1020.5
20260506165024 12 336 6.4 9.7 0.00 0.03 0.03 44 1020.3
20260506164521 12 342 3.2 3.2 0.00 0.03 0.03 40 1020.2
20260506164018 12 8 11.3 14.5 0.00 0.03 0.03 43 1020.4
20260506163514 12 52 3.2 4.8 0.00 0.03 0.03 45 1020.4
20260506163010 12 22 8.0 9.7 0.00 0.03 0.03 45 1020.2
20260506162506 12 0 8.0 9.7 0.00 0.03 0.03 45 1020.2
20260506162003 12 310 16.1 17.7 0.00 0.03 0.03 44 1020.5
20260506161500 12 45 8.0 12.9 0.00 0.03 0.03 44 1020.1
20260506160952 12 359 11.3 12.9 0.00 0.03 0.03 43 1020.3
20260506160449 12 352 9.7 12.9 0.00 0.03 0.03 45 1020.0
20260506155946 12 324 6.4 6.4 0.00 0.03 0.03 46 1020.0